Regional Weather Roundup
Issued by NWS

Home | Current Version | Previous Version | Graphics & Text | Print | Product List | Glossary On
Versions: 1 2 3 4 5 6 7 8 9 10 11 12 13 14 15 16 17 18 19 20 21 22 23 24 25 26 27 28 29 30 31 32 33 34 35 36 37 38 39 40 41 42 43 44 45 46 47 48 49 50
919
ASUS45 KPSR 241110
RWRAZ

ARIZONA HOURLY REGIONAL WEATHER ROUNDUP
NATIONAL WEATHER SERVICE PHOENIX AZ
400 AM MST FRI MAR 24 2017

NOTE: FAIR INDICATES FEW OR NO CLOUDS BELOW 12,000 FEET WITH NO
SIGNIFICANT WEATHER AND/OR OBSTRUCTIONS TO VISIBILITY.

AZZ001>003-036-241200-
NORTHWEST ARIZONA

CITY           SKY/WX    TMP DP  RH WIND       PRES   REMARKS
BULLHEAD CITY  CLEAR     57  32  38 CALM      30.11S
KINGMAN        CLEAR     37  31  78 CALM      30.15S
$$

AZZ004>008-015-016-018-241200-
NORTH CENTRAL ARIZONA

CITY           SKY/WX    TMP DP  RH WIND       PRES   REMARKS
GRAND CANYON   CLEAR     26  26 100 CALM      30.15F
WILLIAMS       CLEAR     27  25  93 CALM      30.18R
PRESCOTT       CLEAR     34  30  85 CALM      30.16S
FLAGSTAFF      CLEAR     32  25  75 VRB6      30.14R WCI  26
PAYSON         CLEAR     39  32  75 NW5       30.18R
PAGE           CLEAR     48  32  53 W10G21    30.09R
$$

AZZ009>014-017-241200-
NORTHEAST ARIZONA

CITY           SKY/WX    TMP DP  RH WIND       PRES   REMARKS
WINSLOW        CLEAR     39  29  67 W10       30.10S WCI  32
SAINT JOHNS    CLEAR     38  27  64 W15       30.09R WCI  29
WINDOW ROCK    MOCLDY    35  27  72 W8        30.02F WCI  29
SHOW LOW       CLEAR     30  27  86 S10       30.15R WCI  21
$$

AZZ023-241200-
GREATER PHOENIX AREA

CITY           SKY/WX    TMP DP  RH WIND       PRES   REMARKS
PHOENIX        CLEAR     55  41  59 E3        30.10R
BUCKEYE        CLEAR     50  37  62 NW5       30.12S
LUKE AFB       CLEAR     51  42  70 W3        30.10R
DEER VALLEY    CLEAR     46  40  79 E3        30.10R
SCOTTSDALE     CLEAR     52  39  61 CALM      30.12R
MESA-GATEWAY   CLEAR     48  41  76 SE8       30.13R
$$

AZZ027-028-241200-
SOUTHWEST MARICOPA COUNTY AND PINAL COUNTY

CITY           SKY/WX    TMP DP  RH WIND       PRES   REMARKS
CASA GRANDE    NOT AVBL
GILA BEND      FAIR      53  33  46 SE7       30.12S
$$

AZZ503-504-507>509-241200-
SOUTHEAST ARIZONA

CITY           SKY/WX    TMP DP  RH WIND       PRES   REMARKS
TUCSON         CLEAR     48  23  37 S6        30.18S
DAVIS-MONTHAN  CLEAR     44  23  43 SE5       30.17S
NOGALES        CLEAR     39  21  48 E3        30.17F
SIERRA VISTA   CLEAR     43  25  49 W9        30.18S
DOUGLAS        CLEAR     32  18  56 NE8       30.17S WCI  25
SAFFORD        CLEAR     49  33  54 NW15      30.08F
$$

AZZ020-021-025-026-031-241200-
SOUTHWEST ARIZONA

CITY           SKY/WX    TMP DP  RH WIND       PRES   REMARKS
YUMA           CLEAR     57  42  57 W5        30.13F
$$

CAZ031-033-041-043-047-048-061-241200-
SOUTHERN CALIFORNIA

CITY           SKY/WX    TMP DP  RH WIND       PRES   REMARKS
DOWNTOWN L.A.  CLEAR     56  47  71 CALM      30.22F
L.A. AIRPORT   PTCLDY    53  49  86 NE3       30.23S
SAN DIEGO      PTCLDY    54  44  69 CALM      30.23F
BURBANK        CLEAR     49  42  77 N5        30.22S
ONTARIO        CLEAR     49  41  74 N3        30.21F
RIVERSIDE      CLEAR     48  43  82 NE3       30.22F
PALM SPRINGS   CLEAR     56  41  57 CALM      30.15F
EL CENTRO NAS  CLEAR     51  35  54 SW3       30.15S
IMPERIAL       CLEAR     53  38  56 SW5       30.13S
BLYTHE         CLEAR     54  41  61 W5        30.11S
NEEDLES        CLEAR     57  31  37 S5        30.11R
$$

NVZ020-UTZ003-241200-
SOUTHERN NEVADA-UTAH

CITY           SKY/WX    TMP DP  RH WIND       PRES   REMARKS
LAS VEGAS      CLEAR     53  32  44 S3        30.14R
SALT LAKE CITY PTCLDY    35  33  92 SE9       30.17R WCI  28
$$

NMZ009-TXZ055-241200-
NEW MEXICO-WEST TEXAS

CITY           SKY/WX    TMP DP  RH WIND       PRES   REMARKS
ALBUQUERQUE    CLOUDY    45  28  51 W17G26    29.83S
EL PASO        PTCLDY    51  23  33 W38G53    30.00S
$$


........................KEY........................
SKY/WX - SKY CONDITION/WEATHER
TMP    - TEMPERATURE IN FAHRENHEIT
DP     - DEW POINT IN FAHRENHEIT
RH     - RELATIVE HUMIDITY IN PERCENT
WIND   - DIRECTION AND SPEED IN MILES PER HOUR (MPH)
VRB    - VARIABLE WIND DIRECTION
PRES   - MEAN SEA LEVEL PRESSURE IN INCHES OF MERCURY
         F - FALLING PRESSURE   R - RISING PRESSURE
         S - STEADY PRESSURE
VSB    - VISIBILITY IN MILES
HX     - HEAT INDEX IN FAHRENHEIT
WCI    - WIND CHILL INDEX IN FAHRENHEIT
TC     - TEMPERATURE IN CELSIUS WHICH IS ALSO KNOWN AS
         TEMPERATURE IN CENTIGRADE
AFB    - AIR FORCE BASE
         LUKE AFB IS LUKE AIR FORCE BASE
         DAVIS-MONTHAN IS DAVIS-MONTHAN AIR FORCE BASE
NAS    - NAVAL AIR STATION
         EL CENTRO NAS IS EL CENTRO NAVAL AIR STATION
N/A    - NOT AVAILABLE





USA.gov is the U.S. government's official web portal to all federal, state and local government web resources and services.